Regional Weather Roundup
Issued by NWS Upton, NY

Current Version | Previous Version | Text Only | Print | Product List | Glossary On
Versions: 1 2 3 4 5 6 7 8 9 10 11 12 13 14 15 16 17 18 19 20 21 22 23 24 25 26 27 28 29 30 31 32 33 34 35 36 37 38 39 40 41 42 43 44 45 46 47 48 49 50
000
ASUS41 KOKX 170208
RWROKX

REGIONAL WEATHER ROUNDUP
NATIONAL WEATHER SERVICE NEW YORK NY
900 PM EST MON JAN 16 2017

NOTE: "FAIR" INDICATES FEW OR NO CLOUDS BELOW 12,000 FEET WITH NO
SIGNIFICANT WEATHER AND/OR OBSTRUCTIONS TO VISIBILITY.

NYZ071-072-176-178-NJZ106-104-170300-
NEW YORK CITY METRO AREA

CITY           SKY/WX    TMP DP  RH WIND       PRES   REMARKS
Central Park   CLOUDY    41  24  51 SW12      30.35S
Wall St Helipt CLOUDY    41  27  57 W6        30.35F
Bronx Bot Gard NOT AVBL
LaGuardia APRT CLOUDY    43  24  47 SW9       30.33S
Kennedy INTL   CLOUDY    41  26  55 SW9       30.35F
Breezy Point     N/A     39 N/A N/A SW7         N/A  WCI  34
Newark/Liberty CLOUDY    40  24  53 SW8       30.33F WCI  34
Teterboro      CLOUDY    41  25  53 SW7       30.33S
$$

NYZ177-179-078>081-170300-
LONG ISLAND NEW YORK

CITY           SKY/WX    TMP DP  RH WIND       PRES   REMARKS
Jones Beach      N/A     39 N/A N/A SW8         N/A  WCI  34
Matinecock PT  NOT AVBL
Farmingdale    CLOUDY    39  30  70 SW6       30.34F WCI  35
MacArthur/ISP  CLOUDY    35  32  88 SW6       30.33F WCI  30
Shirley        CLOUDY    35  31  85 SW3       30.34F
Westhampton    CLOUDY    32  28  85 W6        30.35S WCI  26
Southampton    NOT AVBL
Bridgehampton  NOT AVBL
East Hampton     N/A     34  28  79 W6        30.33R WCI  29
Montauk          N/A     37  27  67 SW8       30.33S WCI  31
$$

NYZ052-065-067-170300-
HUDSON VALLEY

CITY           SKY/WX    TMP DP  RH WIND       PRES   REMARKS
White Plains   CLOUDY    37  23  56 CALM      30.31S
Newburgh       MOCLDY    36  25  64 W9        30.31S WCI  29
Montgomery     MOCLDY    35  24  64 SW5       30.29S WCI  31
Poughkeepsie   PTCLDY    36  22  56 S5        30.29F WCI  32
Albany         CLOUDY    27  19  72 CALM      30.28F
$$

NJZ001-105-106-008-010-013-015-019>022-104-170300-
NEW JERSEY

CITY           SKY/WX    TMP DP  RH WIND       PRES   REMARKS
Newark/Liberty CLOUDY    40  24  53 SW8       30.33F WCI  34
Teterboro      CLOUDY    41  25  53 SW7       30.33S
Caldwell       CLOUDY    38  24  57 SW3       30.34S
Somerville     MOCLDY    35  25  66 CALM      30.33S
Linden         CLOUDY    40  23  49 CALM      30.34F
Sussex         CLOUDY    34  25  69 SW3       30.31S
Andover          N/A     35  25  66 S3        30.32R
Trenton        CLOUDY    39  24  55 SW5       30.34S
Millville      CLOUDY    37  25  61 CALM      30.36F
Atlantic City  CLOUDY    39  25  57 CALM      30.36F
Wrightstown    CLOUDY    38  22  53 W6        30.33S WCI  34
Toms River     CLOUDY    37  26  64 CALM      30.36F
Belmar         CLOUDY    37  25  61 S3        30.35F
$$

PAZ047>061-062-071-170300-
EASTERN PENNSYLVANIA

CITY           SKY/WX    TMP DP  RH WIND       PRES   REMARKS
Philadelphia   CLOUDY    39  26  59 S5        30.36F
Allentown      CLOUDY    37  25  61 SW6       30.32F WCI  32
Scranton       CLOUDY    36  28  73 SW5       30.29S WCI  32
$$

CTZ002-004>006-009-010-012-RIZ004-006-007-MAZ004-011-015-170300-
SOUTHERN NEW ENGLAND
 IN CT

CITY           SKY/WX    TMP DP  RH WIND       PRES   REMARKS
Bradley INTL   CLOUDY    34  22  61 S9        30.29F WCI  27
Hartford       CLOUDY    31  23  72 SE5       30.31S WCI  26
Danbury        CLOUDY    35  23  61 W5        30.30F WCI  31
Wtrbury/Oxford MOCLDY    34  19  55 SW5       30.29S WCI  30
Bridgeport     CLOUDY    39  31  72 SW6       30.33S WCI  35
Meriden        CLOUDY    33  23  66 S5        30.31S WCI  29
New Haven      CLOUDY    37  31  78 SW3       30.32F
Chester          N/A     34  28  80 W9        30.30S WCI  26
Groton         CLOUDY    37  30  75 W9        30.32R WCI  30
Wilimantic     CLOUDY    31  23  72 CALM      30.30F

 IN RI

CITY           SKY/WX    TMP DP  RH WIND       PRES   REMARKS
Providence     CLOUDY    32  21  64 S6        30.30S WCI  26
Block Island   NOT AVBL
Westerly       PTCLDY    38  27  64 W6        30.32S WCI  33
 IN MA

CITY           SKY/WX    TMP DP  RH WIND       PRES   REMARKS
Boston         MOCLDY    36  19  50 SW13      30.25F WCI  27
Worcester      CLOUDY    32  16  51 W15       30.21F WCI  22
Westfield      CLOUDY    32  20  61 S7        30.27F WCI  26
Provincetown   PTCLDY    36  25  64 SW17G25   30.26F WCI  26
Nantucket      PTCLDY    39  32  76 W14       30.28F WCI  31
$$

ANZ330-335-338-340-345-350-353-355-170300-
COASTAL MARINE OBSERVATIONS


STATION/POSITION TIME  SKY/WX   TEMP    WIND        PRES    VSBY  WAVE
                                AIR SEA DIR/SP/G                  HT/PER
                 (UTC)          (F)     (DEG/KT/KT) (MB)    (MI)  (FT/S)
NY HARB ENTRANCE 0050            42 44  230/ 12/ 14 1027.8          2/ 3
20 S FIRE ISLAND 0150            42 45  240/ 12/ 14 1027.5          2/ 3
GREAT SOUTH BAY  NOT AVBL
23 SSW MONTAUK P 0050            42 48  250/ 17/ 19 1027.3          3/ 4
15 E BARNEGAT LI 0130               46                N/A           2/ 9
HUDSON CANYON    0050            45 53              1028.0          2/11
KINGS POINT      0136            41 38              1027.1
EXECUTION ROCKS  0145            40     210/  8/ 10   N/A
CENTRAL LI SOUND 0130            39     230/ 14/ 17   N/A           2/ 3
EASTERN LI SOUND NOT AVBL
ROBBINS REEF     0148            40     220/  5/  7 1027.5
$$


>>>>>>>>>>>>>>>>>>>>>>>>>>>> KEY <<<<<<<<<<<<<<<<<<<<<<<<<<<
>                                                          <
>     SKY/WX - Sky Condition/Present Weather               <
>     TMP    - Temperature in Fahrenheit                   <
>     DP     - Dew Point in Fahrenheit                     <
>     RH     - Relative Humidity in Percent                <
>     WIND   - Direction (from) and Speed in MPH           <
>     PRES   - Mean Sea Level Pressure (inches of Hg)      <
>     WCI    - Wind Chill Index                            <
>     VSB    - VISIBILITY IN MILES                         <
>     HX     - HEAT INDEX                                  <
>     TC     - TEMPERATURE IN CELSIUS                      <
>     VRB    - VARIABLE WIND DIRECTION                     <
>                                                          <
>>>>>>>>>>>>>>>>>>>>>>>>>>>> KEY <<<<<<<<<<<<<<<<<<<<<<<<<<<



USA.gov is the U.S. government's official web portal to all federal, state and local government web resources and services.